TimeEST,TemperatureF,Dew PointF,Humidity,Sea Level PressureIn,VisibilityMPH,Wind Direction,Wind SpeedMPH,Gust SpeedMPH,PrecipitationIn,Events,Conditions,WindDirDegrees,DateUTC
12:53 AM,51.1,36.0,56,30.02,10.0,SW,9.2,-,N/A,,Overcast,230,2013-11-10 05:53:00
1:53 AM,53.1,37.0,55,29.99,10.0,SSW,10.4,16.1,N/A,,Overcast,210,2013-11-10 06:53:00
2:53 AM,53.1,36.0,52,29.96,10.0,SW,10.4,-,N/A,,Overcast,220,2013-11-10 07:53:00
3:53 AM,52.0,37.0,57,29.94,10.0,SW,10.4,18.4,N/A,,Overcast,230,2013-11-10 08:53:00
4:53 AM,51.1,36.0,56,29.94,10.0,SW,9.2,-,N/A,,Overcast,230,2013-11-10 09:53:00
5:53 AM,50.0,37.0,61,29.93,10.0,WSW,10.4,-,N/A,,Overcast,240,2013-11-10 10:53:00
6:53 AM,46.9,37.0,68,29.92,10.0,WSW,9.2,-,N/A,,Mostly Cloudy,240,2013-11-10 11:53:00
7:53 AM,50.0,36.0,59,29.92,10.0,WSW,11.5,-,N/A,,Clear,240,2013-11-10 12:53:00
8:53 AM,53.1,35.1,50,29.91,10.0,WSW,15.0,19.6,N/A,,Clear,240,2013-11-10 13:53:00
9:53 AM,54.0,35.1,49,29.89,10.0,SW,11.5,-,N/A,,Clear,220,2013-11-10 14:53:00
10:53 AM,55.9,36.0,47,29.86,10.0,SW,8.1,-,N/A,,Clear,220,2013-11-10 15:53:00
11:53 AM,59.0,37.0,44,29.82,10.0,SW,10.4,17.3,N/A,,Clear,220,2013-11-10 16:53:00
12:53 PM,59.0,37.0,44,29.80,10.0,SW,10.4,19.6,N/A,,Partly Cloudy,220,2013-11-10 17:53:00
1:53 PM,62.1,28.0,28,29.78,10.0,West,19.6,28.8,N/A,,Scattered Clouds,280,2013-11-10 18:53:00
2:53 PM,52.0,37.0,57,29.83,10.0,NW,25.3,40.3,0.00,Rain,Light Rain,310,2013-11-10 19:53:00
3:53 PM,46.9,37.0,68,29.91,10.0,WNW,15.0,28.8,0.00,Rain,Light Rain,290,2013-11-10 20:53:00
4:53 PM,46.9,34.0,61,29.91,10.0,West,12.7,-,0.00,,Mostly Cloudy,280,2013-11-10 21:53:00
5:53 PM,48.0,33.1,56,29.94,10.0,WNW,17.3,27.6,N/A,,Clear,290,2013-11-10 22:53:00
6:53 PM,48.0,30.9,52,29.96,10.0,West,20.7,26.5,N/A,,Clear,280,2013-11-10 23:53:00
7:53 PM,46.9,30.9,54,29.97,10.0,West,13.8,-,N/A,,Clear,270,2013-11-11 00:53:00
8:53 PM,48.0,30.9,52,29.98,10.0,West,13.8,26.5,N/A,,Overcast,270,2013-11-11 01:53:00
9:53 PM,48.9,28.9,46,29.99,10.0,West,17.3,28.8,N/A,,Overcast,280,2013-11-11 02:53:00
10:53 PM,48.9,26.1,41,29.99,10.0,WNW,28.8,35.7,N/A,,Partly Cloudy,290,2013-11-11 03:53:00
11:53 PM,48.0,27.0,44,30.01,10.0,West,15.0,24.2,N/A,,Overcast,270,2013-11-11 04:53:00